EW5732 Weather Reports


time (UTC)temp
F
wind
direction
speed
knots
gust
knots
rain 1hr
in
rain 24hr
in
rain mn
in
humidity
%
barometer
mb
20260507171505 0 155 0.0 0.0 0.00 0.00 0.00 1018.1
20260507170101 0 157 0.0 0.0 0.00 0.00 0.00 1018.0
20260507164605 0 313 0.0 0.0 0.00 0.00 0.00 1017.7
20260507163051 0 298 0.0 0.0 0.00 0.00 0.00 1017.7
20260507161603 0 267 0.0 0.0 0.00 0.00 0.00 1017.7
20260507160101 0 252 0.0 0.0 0.00 0.00 0.00 1017.8
20260507154540 0 261 0.0 0.0 0.00 0.00 0.00 1017.8
20260507153036 0 284 0.0 0.0 0.00 0.00 0.00 1017.7
20260507151535 0 348 0.0 0.0 0.00 0.00 0.00 1017.6
20260507150031 0 342 0.0 0.0 0.00 0.00 0.00 1017.6
20260507144541 0 313 0.0 0.0 0.00 0.00 0.00 1017.5
20260507143023 0 277 0.0 0.0 0.00 0.00 0.00 1017.5
20260507141523 0 342 0.0 0.0 0.00 0.00 0.00 1017.5
20260507140013 0 22 0.0 0.0 0.00 0.00 0.00 1017.5
20260507134509 0 302 0.0 0.0 0.00 0.00 0.00 1017.5
20260507133010 0 288 0.0 0.0 0.00 0.00 0.00 1017.6
20260507131501 0 261 0.0 0.0 0.00 0.00 0.00 1017.6
20260507130058 0 325 0.0 0.0 0.00 0.00 0.00 1017.5
20260507124553 0 288 0.0 0.0 0.00 0.00 0.00 1017.4
20260507123051 0 286 0.0 0.0 0.00 0.00 0.00 1017.3
20260507121547 0 332 0.0 0.0 0.00 0.00 0.00 1017.2
20260507120042 0 298 0.0 0.0 0.00 0.00 0.00 1017.2
20260507114538 0 350 0.0 0.0 0.00 0.00 0.00 1017.2
20260507113037 0 277 0.0 0.0 0.00 0.00 0.00 1017.1
20260507111538 0 268 0.0 0.0 0.00 0.00 0.00 1017.2
20260507110031 0 313 0.0 0.0 0.00 0.00 0.00 1017.1
20260507104524 0 296 0.0 0.0 0.00 0.00 0.00 1017.1
20260507103023 0 319 0.0 0.0 0.00 0.00 0.00 1017.2
20260507101519 0 341 0.0 0.0 0.00 0.00 0.00 1017.0
20260507100015 0 311 0.0 0.0 0.00 0.00 0.00 1017.0
20260507094510 0 271 0.0 0.0 0.00 0.00 0.00 1017.0
20260507093010 0 26 0.0 0.0 0.00 0.00 0.00 1016.9
20260507091502 0 323 0.0 0.0 0.00 0.00 0.00 1016.8
20260507090112 0 315 0.0 0.0 0.00 0.00 0.00 1016.8
20260507084553 0 309 0.0 0.0 0.00 0.00 0.00 1016.8
20260507083049 0 301 0.0 0.0 0.00 0.00 0.00 1016.8
20260507081547 0 336 0.0 0.0 0.00 0.00 0.00 1016.6
20260507080043 0 360 0.0 0.0 0.00 0.00 0.00 1016.5
20260507074539 0 288 0.0 0.0 0.00 0.00 0.00 1016.4
20260507073034 0 355 0.0 0.0 0.00 0.00 0.00 1016.3
20260507071533 0 25 0.0 0.0 0.00 0.00 0.00 1016.2
20260507070028 0 59 0.0 0.0 0.00 0.00 0.00 1016.1
20260507064524 0 322 0.0 0.0 0.00 0.00 0.00 1016.0
20260507063021 0 351 0.0 0.0 0.00 0.00 0.00 1016.0
20260507061511 0 331 0.0 0.0 0.00 0.00 0.00 1016.0
20260507060006 0 14 0.0 0.0 0.00 0.00 0.00 1015.9
20260507054502 0 239 0.0 0.0 0.00 0.00 0.00 1015.8
20260507053058 0 275 0.0 0.0 0.00 0.00 0.00 1015.6
20260507051557 0 246 0.0 0.0 0.00 0.00 0.00 1015.6
20260507050052 0 246 0.0 0.0 0.00 0.00 0.00 1015.5
20260507044548 0 0.0 0.0 0.00 0.00 0.00 1015.4
20260507043045 0 0.0 0.0 0.00 0.00 0.00 1015.3
20260507041551 0 0.0 0.0 0.00 0.00 0.00 1015.2
20260507040036 0 0.0 0.0 0.00 0.00 0.00 1015.2
20260507034531 0 0.0 0.0 0.00 0.00 0.00 1015.1
20260507033032 0 0.0 0.0 0.00 0.00 0.00 1015.0
20260507031524 0 0.0 0.0 0.00 0.00 0.00 1014.9
20260507030019 0 0.0 0.0 0.00 0.00 0.00 1014.8
20260507024515 0 0.0 0.0 0.00 0.00 0.00 1014.8
20260507023010 0 0.0 0.0 0.00 0.00 0.00 1014.6
20260507021511 0 0.0 0.0 0.00 0.00 0.00 1014.5
20260507020006 0 0.0 0.0 0.00 0.00 0.00 1014.5
20260507014506 0 0.0 0.0 0.00 0.00 0.00 1014.4
20260507013114 0 0.0 0.0 0.00 0.00 0.00 1014.3
20260507011557 0 0.0 0.0 0.00 0.00 0.00 1014.2
20260507010053 0 0.0 0.0 0.00 0.00 0.00 1014.2
20260507004549 0 0.0 0.0 0.00 0.00 0.00 1014.2
20260507003044 0 0.0 0.0 0.00 0.00 0.00 1014.2
20260507001549 0 0.0 0.0 0.00 0.00 0.00 1014.3
20260507000033 0 0.0 0.0 0.00 0.00 0.00 1014.3
20260506234528 0 0.0 0.0 0.00 0.00 0.00 1014.2
20260506233025 0 0.0 0.0 0.00 0.00 0.00 1014.2
20260506231522 0 0.0 0.0 0.00 0.00 0.00 1014.3
20260506230017 0 0.0 0.0 0.00 0.00 0.00 1014.2
20260506224512 0 0.0 0.0 0.00 0.00 0.00 1014.0
20260506223007 0 0.0 0.0 0.00 0.00 0.00 1014.0
20260506221504 0 0.0 0.0 0.00 0.00 0.00 1013.9
20260506220101 0 0.0 0.0 0.00 0.00 0.00 1013.9
20260506214608 0 0.0 0.0 0.00 0.00 0.00 1013.9
20260506213052 0 0.0 0.0 0.00 0.00 0.00 1013.9
20260506211552 0 0.0 0.0 0.00 0.00 0.00 1013.7
20260506210048 0 0.0 0.0 0.00 0.00 0.00 1013.7
20260506204544 0 0.0 0.0 0.00 0.00 0.00 1013.7
20260506203044 0 0.0 0.0 0.00 0.00 0.00 1013.7
20260506201534 0 0.0 0.0 0.00 0.00 0.00 1013.5
20260506200029 0 0.0 0.0 0.00 0.00 0.00 1013.5
20260506194525 0 0.0 0.0 0.00 0.00 0.00 1013.4
20260506193020 0 0.0 0.0 0.00 0.00 0.00 1013.2
20260506191521 0 0.0 0.0 0.00 0.00 0.00 1013.2
20260506190018 0 0.0 0.0 0.00 0.00 0.00 1013.1
20260506184512 0 0.0 0.0 0.00 0.00 0.00 1013.0
20260506183007 0 0.0 0.0 0.00 0.00 0.00 1012.8
20260506181506 0 0.0 0.0 0.00 0.00 0.00 1012.5
20260506180005 0 0.0 0.0 0.00 0.00 0.00 1012.3
20260506174559 0 62 0.0 0.0 0.00 0.00 0.00 1012.2
20260506173113 0 39 0.0 0.0 0.00 0.00 0.00 1012.2